Time,TemperatureF,DewpointF,PressureIn,WindDirection,WindDirectionDegrees,WindSpeedMPH,WindSpeedGustMPH,Humidity,HourlyPrecipIn,Conditions,Clouds,dailyrainin,SoftwareType,DateUTC
2013-05-18 00:00:00,66.6,64.5,30.02,NE,51,0.0,0.0,93,0.00,-RA,,0.00,WeatherDisplay:10.37,2013-05-18 04:00:00,
2013-05-18 00:01:00,66.6,64.5,30.02,ENE,57,0.0,1.0,93,0.00,RA,,0.00,WeatherDisplay:10.37,2013-05-18 04:01:00,
2013-05-18 00:10:00,66.3,64.2,30.02,SE,141,0.0,2.0,93,0.00,RA,,0.00,WeatherDisplay:10.37,2013-05-18 04:10:00,
2013-05-18 00:11:00,66.3,64.2,30.03,SE,142,0.0,1.0,93,0.00,-RA,,0.00,WeatherDisplay:10.37,2013-05-18 04:11:00,
2013-05-18 00:12:00,66.3,64.2,30.03,SE,144,0.0,0.0,93,0.00,-RA,,0.00,WeatherDisplay:10.37,2013-05-18 04:12:00,
2013-05-18 00:13:00,66.3,64.2,30.03,SE,144,0.0,0.0,93,0.00,-RA,,0.00,WeatherDisplay:10.37,2013-05-18 04:13:00,
2013-05-18 00:18:00,66.1,64.0,30.03,SE,144,0.0,0.0,93,0.01,-RA,,0.01,WeatherDisplay:10.37,2013-05-18 04:18:00,
2013-05-18 00:23:00,66.0,63.9,30.02,SE,144,0.0,3.0,93,0.00,-RA,,0.02,WeatherDisplay:10.37,2013-05-18 04:23:00,
2013-05-18 00:28:00,65.9,63.8,30.02,SE,142,0.0,1.0,93,0.00,-RA,,0.02,WeatherDisplay:10.37,2013-05-18 04:28:00,
2013-05-18 00:33:00,65.8,63.7,30.02,SE,140,0.0,0.0,93,0.00,-RA,,0.03,WeatherDisplay:10.37,2013-05-18 04:33:00,
2013-05-18 00:38:00,65.8,63.7,30.02,SE,140,0.0,0.0,93,0.00,-RA,,0.03,WeatherDisplay:10.37,2013-05-18 04:38:00,
2013-05-18 00:43:00,65.7,63.6,30.02,SE,140,0.0,0.0,93,0.00,-RA,,0.03,WeatherDisplay:10.37,2013-05-18 04:43:00,
2013-05-18 00:48:00,65.6,63.8,30.02,SE,140,0.0,0.0,94,0.00,-RA,,0.04,WeatherDisplay:10.37,2013-05-18 04:48:00,
2013-05-18 00:53:00,65.6,63.8,30.02,SE,140,0.0,0.0,94,0.00,RA,,0.04,WeatherDisplay:10.37,2013-05-18 04:53:00,
2013-05-18 00:58:00,65.6,63.8,30.02,SE,140,0.0,0.0,94,0.00,RA,,0.04,WeatherDisplay:10.37,2013-05-18 04:58:00,
2013-05-18 01:05:00,65.5,63.4,30.02,SE,140,0.0,0.0,93,0.01,-RA,,0.05,WeatherDisplay:10.37,2013-05-18 05:05:00,
2013-05-18 01:10:00,65.4,63.6,30.02,SE,140,0.0,0.0,94,0.00,-RA,,0.05,WeatherDisplay:10.37,2013-05-18 05:10:00,
2013-05-18 01:15:00,65.4,63.6,30.02,SE,140,0.0,0.0,94,0.00,-RA,,0.05,WeatherDisplay:10.37,2013-05-18 05:15:00,
2013-05-18 01:20:00,65.4,63.6,30.02,SE,140,0.0,0.0,94,0.00,-RA,,0.05,WeatherDisplay:10.37,2013-05-18 05:20:00,
2013-05-18 01:25:00,65.4,63.6,30.02,SE,140,0.0,0.0,94,0.00,-RA,,0.05,WeatherDisplay:10.37,2013-05-18 05:25:00,
2013-05-18 01:30:00,65.3,63.5,30.02,SE,140,0.0,0.0,94,0.00,-RA,,0.05,WeatherDisplay:10.37,2013-05-18 05:30:00,
2013-05-18 01:35:00,65.3,63.5,30.01,SE,140,0.0,0.0,94,0.00,-RA,,0.05,WeatherDisplay:10.37,2013-05-18 05:35:00,
2013-05-18 01:40:00,65.3,63.5,30.01,SE,140,0.0,0.0,94,0.00,-RA,,0.06,WeatherDisplay:10.37,2013-05-18 05:40:00,
2013-05-18 01:45:00,65.2,63.4,30.00,SE,140,0.0,0.0,94,0.00,-RA,,0.06,WeatherDisplay:10.37,2013-05-18 05:45:00,
2013-05-18 01:50:00,65.2,63.4,30.00,SE,140,0.0,0.0,94,0.00,-RA,,0.06,WeatherDisplay:10.37,2013-05-18 05:50:00,
2013-05-18 01:55:00,65.2,63.4,30.01,SE,140,0.0,0.0,94,0.00,-RA,,0.06,WeatherDisplay:10.37,2013-05-18 05:55:00,
2013-05-18 02:00:00,65.2,63.4,30.00,SE,140,0.0,0.0,94,0.00,-RA,,0.06,WeatherDisplay:10.37,2013-05-18 06:00:00,
2013-05-18 02:05:00,65.3,63.8,30.00,SE,140,0.0,0.0,95,0.00,-RA,,0.06,WeatherDisplay:10.37,2013-05-18 06:05:00,
2013-05-18 02:10:00,65.2,63.4,30.01,SE,140,0.0,0.0,94,0.00,-RA,,0.06,WeatherDisplay:10.37,2013-05-18 06:10:00,
2013-05-18 02:15:00,65.2,63.4,30.00,SE,140,0.0,0.0,94,0.00,-RA,,0.06,WeatherDisplay:10.37,2013-05-18 06:15:00,
2013-05-18 02:20:00,65.2,63.7,30.00,SE,140,0.0,0.0,95,0.01,-RA,,0.07,WeatherDisplay:10.37,2013-05-18 06:20:00,
2013-05-18 02:25:00,65.2,63.7,30.00,SE,140,0.0,0.0,95,0.00,-RA,,0.07,WeatherDisplay:10.37,2013-05-18 06:25:00,
2013-05-18 02:30:00,65.2,63.7,30.00,SE,140,0.0,0.0,95,0.00,-RA,,0.07,WeatherDisplay:10.37,2013-05-18 06:30:00,
2013-05-18 02:35:00,65.2,63.7,30.00,SE,140,0.0,0.0,95,0.00,-RA,,0.07,WeatherDisplay:10.37,2013-05-18 06:35:00,
2013-05-18 02:40:00,65.2,63.7,30.00,SE,140,0.0,0.0,95,0.00,-RA,,0.07,WeatherDisplay:10.37,2013-05-18 06:40:00,
2013-05-18 02:45:00,65.2,63.7,30.00,SE,140,0.0,0.0,95,0.00,-RA,,0.07,WeatherDisplay:10.37,2013-05-18 06:45:00,
2013-05-18 02:50:00,65.2,63.7,30.00,SE,140,0.0,0.0,95,0.00,-RA,,0.07,WeatherDisplay:10.37,2013-05-18 06:50:00,
2013-05-18 02:55:00,65.1,63.7,30.00,SE,140,0.0,0.0,95,0.00,BKN,,0.07,WeatherDisplay:10.37,2013-05-18 06:55:00,
2013-05-18 03:00:00,65.1,63.6,30.00,SE,140,0.0,0.0,95,0.00,RA,,0.08,WeatherDisplay:10.37,2013-05-18 07:00:00,
2013-05-18 03:05:00,65.1,63.6,30.00,SE,140,0.0,0.0,95,0.00,RA,,0.08,WeatherDisplay:10.37,2013-05-18 07:05:00,
2013-05-18 03:10:00,65.1,63.6,30.00,SE,140,0.0,0.0,95,0.00,RA,,0.08,WeatherDisplay:10.37,2013-05-18 07:10:00,
2013-05-18 03:15:00,65.1,63.6,30.00,SE,140,0.0,0.0,95,0.00,-RA,,0.08,WeatherDisplay:10.37,2013-05-18 07:15:00,
2013-05-18 03:20:00,65.1,63.6,30.00,SE,140,0.0,0.0,95,0.00,-RA,,0.08,WeatherDisplay:10.37,2013-05-18 07:20:00,
2013-05-18 03:25:00,65.1,63.7,30.00,SE,140,0.0,0.0,95,0.00,-RA,,0.09,WeatherDisplay:10.37,2013-05-18 07:25:00,
2013-05-18 03:30:00,65.2,63.7,30.00,SE,140,0.0,0.0,95,0.00,-RA,,0.09,WeatherDisplay:10.37,2013-05-18 07:30:00,
2013-05-18 03:35:00,65.2,63.7,30.00,SE,140,0.0,0.0,95,0.00,-RA,,0.09,WeatherDisplay:10.37,2013-05-18 07:35:00,
2013-05-18 03:40:00,65.2,63.7,30.00,SE,140,0.0,0.0,95,0.00,-RA,,0.10,WeatherDisplay:10.37,2013-05-18 07:40:00,
2013-05-18 03:45:00,65.2,63.7,30.00,SE,140,0.0,0.0,95,0.00,-RA,,0.11,WeatherDisplay:10.37,2013-05-18 07:45:00,
2013-05-18 03:50:00,65.2,63.7,30.00,SE,140,0.0,0.0,95,0.00,-RA,,0.11,WeatherDisplay:10.37,2013-05-18 07:50:00,
2013-05-18 03:55:00,65.2,63.7,30.00,SE,140,0.0,0.0,95,0.00,RA,,0.11,WeatherDisplay:10.37,2013-05-18 07:55:00,
2013-05-18 04:00:00,65.2,63.7,30.00,SE,140,0.0,0.0,95,0.00,RA,,0.12,WeatherDisplay:10.37,2013-05-18 08:00:00,
2013-05-18 04:05:00,65.1,63.7,30.00,SE,140,0.0,0.0,95,0.00,RA,,0.12,WeatherDisplay:10.37,2013-05-18 08:05:00,
2013-05-18 04:10:00,65.1,63.7,30.00,SE,140,0.0,0.0,95,0.00,RA,,0.12,WeatherDisplay:10.37,2013-05-18 08:10:00,
2013-05-18 04:15:00,65.2,63.7,30.00,SE,140,0.0,0.0,95,0.00,-DZ,,0.12,WeatherDisplay:10.37,2013-05-18 08:15:00,
2013-05-18 04:20:00,65.2,63.7,30.00,SE,140,0.0,0.0,95,0.00,-DZ,,0.12,WeatherDisplay:10.37,2013-05-18 08:20:00,
2013-05-18 04:25:00,65.1,63.6,30.00,SE,140,0.0,0.0,95,0.00,BKN,,0.12,WeatherDisplay:10.37,2013-05-18 08:25:00,
2013-05-18 04:30:00,65.1,63.6,30.00,SE,140,0.0,0.0,95,0.00,BKN,,0.12,WeatherDisplay:10.37,2013-05-18 08:30:00,
2013-05-18 04:35:00,65.0,63.6,29.99,SE,140,0.0,0.0,95,0.00,-DZ,,0.12,WeatherDisplay:10.37,2013-05-18 08:35:00,
2013-05-18 04:40:00,65.0,63.5,30.00,SE,140,0.0,0.0,95,0.00,-DZ,,0.12,WeatherDisplay:10.37,2013-05-18 08:40:00,
2013-05-18 04:45:00,65.0,63.5,29.99,SE,140,0.0,0.0,95,0.00,BKN,,0.12,WeatherDisplay:10.37,2013-05-18 08:45:00,
2013-05-18 04:50:00,65.0,63.5,29.99,SE,140,0.0,0.0,95,0.00,BKN,,0.12,WeatherDisplay:10.37,2013-05-18 08:50:00,
2013-05-18 04:55:00,65.0,63.5,30.00,SE,140,0.0,0.0,95,0.00,BKN,,0.12,WeatherDisplay:10.37,2013-05-18 08:55:00,
2013-05-18 05:00:00,65.0,63.5,30.00,SE,140,0.0,0.0,95,0.00,BKN,,0.12,WeatherDisplay:10.37,2013-05-18 09:00:00,
2013-05-18 05:05:00,65.0,63.5,30.00,SE,140,0.0,0.0,95,0.00,BKN,,0.12,WeatherDisplay:10.37,2013-05-18 09:05:00,
2013-05-18 05:10:00,65.1,63.6,30.00,SE,140,0.0,0.0,95,0.00,BKN,,0.12,WeatherDisplay:10.37,2013-05-18 09:10:00,
2013-05-18 05:15:00,65.1,63.6,29.99,SE,140,0.0,0.0,95,0.00,RA,,0.13,WeatherDisplay:10.37,2013-05-18 09:15:00,
2013-05-18 05:20:00,65.1,63.6,30.00,SE,140,0.0,0.0,95,0.00,RA,,0.14,WeatherDisplay:10.37,2013-05-18 09:20:00,
2013-05-18 05:25:00,65.1,63.6,30.00,SE,140,0.0,0.0,95,0.00,RA,,0.14,WeatherDisplay:10.37,2013-05-18 09:25:00,
2013-05-18 05:30:00,65.1,63.6,30.00,SE,140,0.0,0.0,95,0.00,RA,,0.15,WeatherDisplay:10.37,2013-05-18 09:30:00,
2013-05-18 05:35:00,65.1,63.6,30.00,SE,140,0.0,0.0,95,0.00,RA,,0.15,WeatherDisplay:10.37,2013-05-18 09:35:00,
2013-05-18 05:40:00,65.1,63.9,30.00,SE,138,1.0,3.0,96,0.01,RA,,0.16,WeatherDisplay:10.37,2013-05-18 09:40:00,
2013-05-18 05:45:00,65.1,63.9,30.00,SE,135,0.0,0.0,96,0.00,RA,,0.16,WeatherDisplay:10.37,2013-05-18 09:45:00,
2013-05-18 05:50:00,65.1,63.9,30.00,SE,134,0.0,0.0,96,0.00,RA,,0.16,WeatherDisplay:10.37,2013-05-18 09:50:00,
2013-05-18 05:55:00,65.1,63.9,30.00,SE,134,0.0,1.0,96,0.00,FEW,,0.16,WeatherDisplay:10.37,2013-05-18 09:55:00,
2013-05-18 06:00:00,65.1,63.9,30.01,SE,134,0.0,0.0,96,0.00,FEW,,0.16,WeatherDisplay:10.37,2013-05-18 10:00:00,
2013-05-18 06:05:00,65.1,63.9,30.01,SE,134,0.0,0.0,96,0.00,FEW,,0.16,WeatherDisplay:10.37,2013-05-18 10:05:00,
2013-05-18 06:10:00,65.1,63.9,30.00,SE,134,0.0,1.0,96,0.00,FEW,,0.16,WeatherDisplay:10.37,2013-05-18 10:10:00,
2013-05-18 06:15:00,65.1,63.9,30.01,SE,134,0.0,0.0,96,0.00,OVC,,0.16,WeatherDisplay:10.37,2013-05-18 10:15:00,
2013-05-18 06:20:00,65.0,63.8,30.01,SE,134,0.0,1.0,96,0.00,OVC,,0.16,WeatherDisplay:10.37,2013-05-18 10:20:00,
2013-05-18 06:25:00,65.0,63.8,30.01,SE,138,0.0,1.0,96,0.00,OVC,,0.16,WeatherDisplay:10.37,2013-05-18 10:25:00,
2013-05-18 06:30:00,64.9,63.5,30.01,SE,134,0.0,1.0,95,0.00,OVC,,0.16,WeatherDisplay:10.37,2013-05-18 10:30:00,
2013-05-18 06:35:00,64.9,63.4,30.01,SE,129,0.0,2.0,95,0.00,OVC,,0.16,WeatherDisplay:10.37,2013-05-18 10:35:00,
2013-05-18 06:40:00,64.7,63.2,30.01,ESE,107,0.0,2.0,95,0.00,OVC,,0.16,WeatherDisplay:10.37,2013-05-18 10:40:00,
2013-05-18 06:45:00,64.6,63.1,30.01,ESE,108,0.0,1.0,95,0.00,OVC,,0.16,WeatherDisplay:10.37,2013-05-18 10:45:00,
2013-05-18 06:50:00,64.5,63.0,30.01,SE,134,0.0,0.0,95,0.00,OVC,,0.16,WeatherDisplay:10.37,2013-05-18 10:50:00,
2013-05-18 06:55:00,64.3,62.8,30.02,SE,134,0.0,0.0,95,0.00,OVC,,0.16,WeatherDisplay:10.37,2013-05-18 10:55:00,
2013-05-18 07:00:00,64.1,62.7,30.02,SE,134,0.0,3.0,95,0.00,OVC,,0.16,WeatherDisplay:10.37,2013-05-18 11:00:00,
2013-05-18 07:05:00,63.9,62.4,30.02,SE,138,0.0,1.0,95,0.00,OVC,,0.16,WeatherDisplay:10.37,2013-05-18 11:05:00,
2013-05-18 07:10:00,63.8,62.3,30.02,SE,139,0.0,0.0,95,0.00,OVC,,0.16,WeatherDisplay:10.37,2013-05-18 11:10:00,
2013-05-18 07:15:00,63.7,62.2,30.02,SE,139,0.0,0.0,95,0.00,OVC,,0.16,WeatherDisplay:10.37,2013-05-18 11:15:00,
2013-05-18 07:20:00,63.6,62.1,30.02,SE,139,0.0,0.0,95,0.00,OVC,,0.16,WeatherDisplay:10.37,2013-05-18 11:20:00,
2013-05-18 07:25:00,63.6,62.1,30.02,SE,139,0.0,0.0,95,0.00,OVC,,0.16,WeatherDisplay:10.37,2013-05-18 11:25:00,
2013-05-18 07:30:00,63.5,62.0,30.02,SE,139,0.0,0.0,95,0.00,OVC,,0.16,WeatherDisplay:10.37,2013-05-18 11:30:00,
2013-05-18 07:35:00,63.3,61.9,30.02,SE,139,0.0,0.0,95,0.00,OVC,,0.16,WeatherDisplay:10.37,2013-05-18 11:35:00,
2013-05-18 07:40:00,63.2,61.7,30.02,SE,139,0.0,1.0,95,0.00,OVC,,0.16,WeatherDisplay:10.37,2013-05-18 11:40:00,
2013-05-18 07:45:00,63.1,61.6,30.02,SE,139,0.0,0.0,95,0.00,OVC,,0.16,WeatherDisplay:10.37,2013-05-18 11:45:00,
2013-05-18 07:50:00,62.9,61.1,30.02,SE,139,0.0,0.0,94,0.00,OVC,,0.16,WeatherDisplay:10.37,2013-05-18 11:50:00,
2013-05-18 07:55:00,62.7,60.9,30.03,SE,139,0.0,0.0,94,0.00,OVC,,0.16,WeatherDisplay:10.37,2013-05-18 11:55:00,
2013-05-18 08:00:00,62.5,60.7,30.03,SE,139,0.0,1.0,94,0.00,OVC,,0.16,WeatherDisplay:10.37,2013-05-18 12:00:00,
2013-05-18 08:05:00,62.4,60.7,30.03,SE,138,0.0,0.0,94,0.00,OVC,,0.16,WeatherDisplay:10.37,2013-05-18 12:05:00,
2013-05-18 08:10:00,62.4,60.7,30.02,SE,138,0.0,0.0,94,0.00,OVC,,0.16,WeatherDisplay:10.37,2013-05-18 12:10:00,
2013-05-18 08:15:00,62.4,60.9,30.03,SE,138,0.0,0.0,95,0.00,OVC,,0.16,WeatherDisplay:10.37,2013-05-18 12:15:00,
2013-05-18 08:20:00,62.3,60.9,30.03,SE,138,0.0,0.0,95,0.00,OVC,,0.16,WeatherDisplay:10.37,2013-05-18 12:20:00,
2013-05-18 08:25:00,62.3,60.8,30.03,SE,138,0.0,0.0,95,0.00,OVC,,0.16,WeatherDisplay:10.37,2013-05-18 12:25:00,
2013-05-18 08:30:00,62.3,60.6,30.03,SE,138,0.0,0.0,94,0.00,OVC,,0.16,WeatherDisplay:10.37,2013-05-18 12:30:00,
2013-05-18 08:35:00,62.3,60.8,30.03,SE,138,0.0,0.0,95,0.00,OVC,,0.16,WeatherDisplay:10.37,2013-05-18 12:35:00,
2013-05-18 08:40:00,62.3,60.6,30.03,SE,138,0.0,1.0,94,0.00,OVC,,0.16,WeatherDisplay:10.37,2013-05-18 12:40:00,
2013-05-18 08:45:00,62.3,60.6,30.03,SE,138,0.0,1.0,94,0.00,OVC,,0.16,WeatherDisplay:10.37,2013-05-18 12:45:00,
2013-05-18 08:50:00,62.4,60.7,30.03,SE,138,0.0,0.0,94,0.00,OVC,,0.16,WeatherDisplay:10.37,2013-05-18 12:50:00,
2013-05-18 08:55:00,62.6,61.1,30.03,SE,138,0.0,1.0,95,0.00,OVC,,0.16,WeatherDisplay:10.37,2013-05-18 12:55:00,
2013-05-18 09:00:00,62.7,61.3,30.03,SE,138,0.0,2.0,95,0.00,OVC,,0.16,WeatherDisplay:10.37,2013-05-18 13:00:00,
2013-05-18 09:05:00,63.0,61.2,30.04,South,176,0.0,2.0,94,0.00,OVC,,0.16,WeatherDisplay:10.37,2013-05-18 13:05:00,
2013-05-18 09:10:00,63.2,61.4,30.04,SSE,168,0.0,1.0,94,0.00,OVC,,0.16,WeatherDisplay:10.37,2013-05-18 13:10:00,
2013-05-18 09:15:00,63.4,61.6,30.04,SE,139,0.0,5.0,94,0.00,OVC,,0.16,WeatherDisplay:10.37,2013-05-18 13:15:00,
2013-05-18 09:20:00,63.6,61.5,30.05,SE,139,0.0,5.0,93,0.00,OVC,,0.16,WeatherDisplay:10.37,2013-05-18 13:20:00,
2013-05-18 09:25:00,63.8,61.7,30.04,SSE,158,1.0,3.0,93,0.00,OVC,,0.16,WeatherDisplay:10.37,2013-05-18 13:25:00,
2013-05-18 09:30:00,64.0,61.9,30.04,SSE,156,0.0,2.0,93,0.00,OVC,,0.16,WeatherDisplay:10.37,2013-05-18 13:30:00,
2013-05-18 09:35:00,64.1,62.0,30.04,South,170,0.0,3.0,93,0.00,OVC,,0.16,WeatherDisplay:10.37,2013-05-18 13:35:00,
2013-05-18 09:40:00,64.3,62.2,30.04,SSW,205,0.0,2.0,93,0.00,OVC,,0.16,WeatherDisplay:10.37,2013-05-18 13:40:00,
2013-05-18 09:45:00,64.4,62.0,30.04,SSW,206,1.0,4.0,92,0.00,OVC,,0.16,WeatherDisplay:10.37,2013-05-18 13:45:00,
2013-05-18 09:50:00,64.5,62.1,30.04,SW,232,0.0,0.0,92,0.00,OVC,,0.16,WeatherDisplay:10.37,2013-05-18 13:50:00,
2013-05-18 09:55:00,64.7,62.6,30.04,WSW,238,0.0,3.0,93,0.00,-RA,,0.16,WeatherDisplay:10.37,2013-05-18 13:55:00,
2013-05-18 10:00:00,64.8,62.4,30.04,South,171,0.0,3.0,92,0.00,-RA,,0.16,WeatherDisplay:10.37,2013-05-18 14:00:00,
2013-05-18 10:05:00,64.8,62.4,30.04,SSE,159,1.0,2.0,92,0.00,OVC,,0.16,WeatherDisplay:10.37,2013-05-18 14:05:00,
2013-05-18 10:10:00,64.9,62.5,30.04,SE,139,3.0,6.0,92,0.00,OVC,,0.16,WeatherDisplay:10.37,2013-05-18 14:10:00,
2013-05-18 10:15:00,64.9,62.2,30.04,SE,143,0.0,2.0,91,0.00,OVC,,0.16,WeatherDisplay:10.37,2013-05-18 14:15:00,
2013-05-18 10:20:00,65.0,62.6,30.04,SE,143,0.0,2.0,92,0.00,OVC,,0.16,WeatherDisplay:10.37,2013-05-18 14:20:00,
2013-05-18 10:25:00,65.1,62.7,30.03,ESE,114,1.0,3.0,92,0.00,-RA,,0.16,WeatherDisplay:10.37,2013-05-18 14:25:00,
2013-05-18 10:30:00,65.3,62.9,30.03,SE,129,1.0,3.0,92,0.00,-RA,,0.16,WeatherDisplay:10.37,2013-05-18 14:30:00,
2013-05-18 10:35:00,65.4,62.8,30.03,SE,138,0.0,2.0,91,0.00,OVC,,0.16,WeatherDisplay:10.37,2013-05-18 14:35:00,
2013-05-18 10:40:00,65.9,63.5,30.04,SE,142,0.0,2.0,92,0.00,OVC,,0.16,WeatherDisplay:10.37,2013-05-18 14:40:00,
2013-05-18 10:45:00,66.1,63.7,30.04,SE,125,0.0,2.0,92,0.00,OVC,,0.16,WeatherDisplay:10.37,2013-05-18 14:45:00,
2013-05-18 10:50:00,66.3,63.6,30.04,South,190,1.0,4.0,91,0.00,OVC,,0.16,WeatherDisplay:10.37,2013-05-18 14:50:00,
2013-05-18 10:55:00,66.5,63.5,30.04,SSW,208,1.0,4.0,90,0.00,OVC,,0.16,WeatherDisplay:10.37,2013-05-18 14:55:00,
2013-05-18 11:00:00,66.7,63.7,30.04,SW,223,0.0,5.0,90,0.00,OVC,,0.16,WeatherDisplay:10.37,2013-05-18 15:00:00,
2013-05-18 11:05:00,66.8,63.5,30.04,SSE,149,2.0,5.0,89,0.00,OVC,,0.16,WeatherDisplay:10.37,2013-05-18 15:05:00,
2013-05-18 11:10:00,67.0,63.6,30.04,SE,135,0.0,2.0,89,0.00,OVC,,0.16,WeatherDisplay:10.37,2013-05-18 15:10:00,
2013-05-18 11:15:00,67.1,63.4,30.04,South,171,0.0,5.0,88,0.00,OVC,,0.16,WeatherDisplay:10.37,2013-05-18 15:15:00,
2013-05-18 11:20:00,67.2,63.8,30.04,SSW,193,0.0,3.0,89,0.00,OVC,,0.16,WeatherDisplay:10.37,2013-05-18 15:20:00,
2013-05-18 11:25:00,67.3,63.6,30.03,South,190,0.0,3.0,88,0.00,OVC,,0.16,WeatherDisplay:10.37,2013-05-18 15:25:00,
2013-05-18 11:30:00,67.4,63.4,30.03,South,183,0.0,2.0,87,0.00,OVC,,0.16,WeatherDisplay:10.37,2013-05-18 15:30:00,
2013-05-18 11:35:00,67.6,63.9,30.04,SE,144,0.0,2.0,88,0.00,OVC,,0.16,WeatherDisplay:10.37,2013-05-18 15:35:00,
2013-05-18 11:40:00,67.9,63.9,30.04,SE,131,0.0,3.0,87,0.00,OVC,,0.16,WeatherDisplay:10.37,2013-05-18 15:40:00,
2013-05-18 11:45:00,68.0,64.0,30.04,SE,126,0.0,2.0,87,0.00,OVC,,0.16,WeatherDisplay:10.37,2013-05-18 15:45:00,
2013-05-18 11:50:00,68.2,64.2,30.04,SE,136,0.0,4.0,87,0.00,OVC,,0.16,WeatherDisplay:10.37,2013-05-18 15:50:00,
2013-05-18 11:55:00,68.5,64.4,30.04,SE,140,1.0,2.0,87,0.00,OVC,,0.16,WeatherDisplay:10.37,2013-05-18 15:55:00,
2013-05-18 12:00:00,68.6,64.2,30.04,SSE,148,1.0,5.0,86,0.00,OVC,,0.16,WeatherDisplay:10.37,2013-05-18 16:00:00,
2013-05-18 12:05:00,68.8,64.4,30.04,South,171,0.0,3.0,86,0.00,OVC,,0.16,WeatherDisplay:10.37,2013-05-18 16:05:00,
2013-05-18 12:10:00,68.9,64.9,30.04,WSW,237,0.0,2.0,87,0.00,OVC,,0.16,WeatherDisplay:10.37,2013-05-18 16:10:00,
2013-05-18 12:15:00,69.1,64.4,30.04,SSE,166,1.0,5.0,85,0.00,OVC,,0.16,WeatherDisplay:10.37,2013-05-18 16:15:00,
2013-05-18 12:20:00,69.2,64.5,30.04,SSE,159,0.0,3.0,85,0.00,OVC,,0.16,WeatherDisplay:10.37,2013-05-18 16:20:00,
2013-05-18 12:25:00,69.2,64.2,30.04,SW,214,2.0,4.0,84,0.00,OVC,,0.16,WeatherDisplay:10.37,2013-05-18 16:25:00,
2013-05-18 12:30:00,69.2,64.5,30.04,South,171,0.0,3.0,85,0.00,OVC,,0.16,WeatherDisplay:10.37,2013-05-18 16:30:00,
2013-05-18 12:35:00,69.4,64.7,30.04,SE,126,0.0,4.0,85,0.00,OVC,,0.16,WeatherDisplay:10.37,2013-05-18 16:35:00,
2013-05-18 12:40:00,69.6,64.9,30.04,SSE,164,1.0,4.0,85,0.00,OVC,,0.16,WeatherDisplay:10.37,2013-05-18 16:40:00,
2013-05-18 12:45:00,69.7,65.0,30.04,SSW,212,1.0,4.0,85,0.00,OVC,,0.16,WeatherDisplay:10.37,2013-05-18 16:45:00,
2013-05-18 12:50:00,69.7,64.3,30.04,South,189,0.0,5.0,83,0.00,OVC,,0.16,WeatherDisplay:10.37,2013-05-18 16:50:00,
2013-05-18 12:55:00,69.5,64.5,30.04,SSE,157,0.0,4.0,84,0.00,OVC,,0.16,WeatherDisplay:10.37,2013-05-18 16:55:00,
2013-05-18 13:00:00,69.3,64.3,30.04,South,177,0.0,5.0,84,0.00,OVC,,0.16,WeatherDisplay:10.37,2013-05-18 17:00:00,
2013-05-18 13:05:00,69.1,64.4,30.04,SSE,166,1.0,6.0,85,0.00,OVC,,0.16,WeatherDisplay:10.37,2013-05-18 17:05:00,
2013-05-18 13:10:00,69.0,64.3,30.04,SE,135,1.0,3.0,85,0.00,OVC,,0.16,WeatherDisplay:10.37,2013-05-18 17:10:00,
2013-05-18 13:15:00,68.9,64.2,30.05,SSW,195,1.0,4.0,85,0.00,OVC,,0.16,WeatherDisplay:10.37,2013-05-18 17:15:00,
2013-05-18 13:20:00,68.8,64.5,30.04,South,183,1.0,5.0,86,0.00,OVC,,0.16,WeatherDisplay:10.37,2013-05-18 17:20:00,
2013-05-18 13:25:00,68.7,64.3,30.04,South,172,0.0,2.0,86,0.00,OVC,,0.16,WeatherDisplay:10.37,2013-05-18 17:25:00,
2013-05-18 13:30:00,68.7,64.7,30.04,SW,219,0.0,1.0,87,0.00,OVC,,0.16,WeatherDisplay:10.37,2013-05-18 17:30:00,
2013-05-18 13:35:00,68.6,64.9,30.04,WSW,253,1.0,3.0,88,0.00,OVC,,0.16,WeatherDisplay:10.37,2013-05-18 17:35:00,
2013-05-18 13:40:00,68.6,64.6,30.04,SW,228,0.0,2.0,87,0.00,OVC,,0.16,WeatherDisplay:10.37,2013-05-18 17:40:00,
2013-05-18 13:45:00,68.5,64.5,30.04,SW,214,2.0,5.0,87,0.00,OVC,,0.16,WeatherDisplay:10.37,2013-05-18 17:45:00,
2013-05-18 13:50:00,68.5,64.5,30.04,South,172,0.0,3.0,87,0.00,OVC,,0.16,WeatherDisplay:10.37,2013-05-18 17:50:00,
2013-05-18 13:55:00,68.6,64.6,30.04,South,170,0.0,3.0,87,0.00,OVC,,0.16,WeatherDisplay:10.37,2013-05-18 17:55:00,
2013-05-18 14:00:00,68.7,64.7,30.04,SE,128,0.0,3.0,87,0.00,OVC,,0.16,WeatherDisplay:10.37,2013-05-18 18:00:00,
2013-05-18 14:05:00,68.9,64.9,30.03,SE,141,0.0,4.0,87,0.00,OVC,,0.16,WeatherDisplay:10.37,2013-05-18 18:05:00,
2013-05-18 14:10:00,69.0,65.0,30.03,SSE,159,0.0,2.0,87,0.00,OVC,,0.16,WeatherDisplay:10.37,2013-05-18 18:10:00,
2013-05-18 14:15:00,69.2,65.2,30.03,SE,139,1.0,2.0,87,0.00,OVC,,0.16,WeatherDisplay:10.37,2013-05-18 18:15:00,
2013-05-18 14:20:00,69.2,64.8,30.03,SSE,156,0.0,3.0,86,0.00,OVC,,0.16,WeatherDisplay:10.37,2013-05-18 18:20:00,
2013-05-18 14:25:00,69.2,64.5,30.03,SSE,149,0.0,5.0,85,0.00,OVC,,0.16,WeatherDisplay:10.37,2013-05-18 18:25:00,
2013-05-18 14:30:00,69.2,64.8,30.03,SSE,149,0.0,4.0,86,0.00,OVC,,0.16,WeatherDisplay:10.37,2013-05-18 18:30:00,
2013-05-18 14:35:00,69.2,64.8,30.03,SW,219,1.0,5.0,86,0.00,OVC,,0.16,WeatherDisplay:10.37,2013-05-18 18:35:00,
2013-05-18 14:40:00,69.3,64.6,30.03,SW,219,0.0,1.0,85,0.00,OVC,,0.16,WeatherDisplay:10.37,2013-05-18 18:40:00,
2013-05-18 14:45:00,69.4,64.7,30.03,SE,144,0.0,2.0,85,0.00,OVC,,0.16,WeatherDisplay:10.37,2013-05-18 18:45:00,
2013-05-18 14:50:00,69.5,65.1,30.03,SE,134,0.0,3.0,86,0.00,OVC,,0.16,WeatherDisplay:10.37,2013-05-18 18:50:00,
2013-05-18 14:55:00,69.5,64.8,30.03,SE,143,0.0,3.0,85,0.00,OVC,,0.16,WeatherDisplay:10.37,2013-05-18 18:55:00,
2013-05-18 15:00:00,69.5,64.8,30.03,SE,140,0.0,1.0,85,0.00,OVC,,0.16,WeatherDisplay:10.37,2013-05-18 19:00:00,
2013-05-18 15:05:00,69.5,65.1,30.03,SSE,154,1.0,3.0,86,0.00,OVC,,0.16,WeatherDisplay:10.37,2013-05-18 19:05:00,
2013-05-18 15:10:00,69.5,65.1,30.03,SSW,205,0.0,1.0,86,0.00,OVC,,0.16,WeatherDisplay:10.37,2013-05-18 19:10:00,
2013-05-18 15:15:00,69.5,65.1,30.03,SSW,212,0.0,1.0,86,0.00,OVC,,0.16,WeatherDisplay:10.37,2013-05-18 19:15:00,
2013-05-18 15:20:00,69.6,64.9,30.03,SSW,204,0.0,4.0,85,0.00,OVC,,0.16,WeatherDisplay:10.37,2013-05-18 19:20:00,
2013-05-18 15:25:00,69.8,65.1,30.02,SSW,195,1.0,4.0,85,0.00,OVC,,0.16,WeatherDisplay:10.37,2013-05-18 19:25:00,
2013-05-18 15:30:00,70.0,65.3,30.02,South,173,0.0,2.0,85,0.00,OVC,,0.16,WeatherDisplay:10.37,2013-05-18 19:30:00,
2013-05-18 15:35:00,70.2,65.5,30.02,SE,143,1.0,3.0,85,0.00,OVC,,0.16,WeatherDisplay:10.37,2013-05-18 19:35:00,
2013-05-18 15:40:00,70.3,64.9,30.02,SSE,160,1.0,4.0,83,0.00,OVC,,0.16,WeatherDisplay:10.37,2013-05-18 19:40:00,
2013-05-18 15:45:00,70.4,65.4,30.01,SSW,211,1.0,4.0,84,0.00,OVC,,0.16,WeatherDisplay:10.37,2013-05-18 19:45:00,
2013-05-18 15:50:00,70.8,66.1,30.01,SSW,211,0.0,2.0,85,0.00,OVC,,0.16,WeatherDisplay:10.37,2013-05-18 19:50:00,
2013-05-18 15:55:00,71.1,65.7,30.01,ESE,108,0.0,3.0,83,0.00,OVC,,0.16,WeatherDisplay:10.37,2013-05-18 19:55:00,
2013-05-18 16:00:00,71.3,65.5,30.01,SSW,204,1.0,7.0,82,0.00,OVC,,0.16,WeatherDisplay:10.37,2013-05-18 20:00:00,
2013-05-18 16:05:00,71.4,65.6,30.01,SW,221,1.0,4.0,82,0.00,OVC,,0.16,WeatherDisplay:10.37,2013-05-18 20:05:00,
2013-05-18 16:10:00,71.5,65.4,30.01,SSW,204,1.0,5.0,81,0.00,OVC,,0.16,WeatherDisplay:10.37,2013-05-18 20:10:00,
2013-05-18 16:15:00,71.5,65.7,30.01,South,181,0.0,5.0,82,0.00,OVC,,0.16,WeatherDisplay:10.37,2013-05-18 20:15:00,
2013-05-18 16:20:00,71.6,65.8,30.01,SE,135,1.0,2.0,82,0.00,OVC,,0.16,WeatherDisplay:10.37,2013-05-18 20:20:00,
2013-05-18 16:25:00,71.9,65.8,30.01,SE,137,1.0,5.0,81,0.00,OVC,,0.16,WeatherDisplay:10.37,2013-05-18 20:25:00,
2013-05-18 16:30:00,72.2,66.1,30.00,SSW,199,1.0,5.0,81,0.00,OVC,,0.16,WeatherDisplay:10.37,2013-05-18 20:30:00,
2013-05-18 16:35:00,72.3,65.8,30.00,SSW,212,0.0,2.0,80,0.00,OVC,,0.16,WeatherDisplay:10.37,2013-05-18 20:35:00,
2013-05-18 16:40:00,72.3,66.5,30.00,SSW,192,0.0,1.0,82,0.00,OVC,,0.16,WeatherDisplay:10.37,2013-05-18 20:40:00,
2013-05-18 16:45:00,72.4,66.2,30.00,South,189,0.0,2.0,81,0.00,OVC,,0.16,WeatherDisplay:10.37,2013-05-18 20:45:00,
2013-05-18 16:50:00,72.5,66.3,30.00,SE,137,0.0,3.0,81,0.00,OVC,,0.16,WeatherDisplay:10.37,2013-05-18 20:50:00,
2013-05-18 16:55:00,72.5,65.6,30.00,SSE,150,1.0,3.0,79,0.00,OVC,,0.16,WeatherDisplay:10.37,2013-05-18 20:55:00,
2013-05-18 17:00:00,72.6,66.1,30.00,WSW,245,0.0,3.0,80,0.00,OVC,,0.16,WeatherDisplay:10.37,2013-05-18 21:00:00,
2013-05-18 17:05:00,72.6,66.1,30.00,WSW,246,0.0,1.0,80,0.00,OVC,,0.16,WeatherDisplay:10.37,2013-05-18 21:05:00,
2013-05-18 17:10:00,72.6,66.1,30.00,South,179,0.0,3.0,80,0.00,OVC,,0.16,WeatherDisplay:10.37,2013-05-18 21:10:00,
2013-05-18 17:15:00,72.6,66.1,30.00,SSE,150,0.0,1.0,80,0.00,OVC,,0.16,WeatherDisplay:10.37,2013-05-18 21:15:00,
2013-05-18 17:21:00,72.6,66.1,29.99,ENE,61,0.0,4.0,80,0.00,OVC,,0.16,WeatherDisplay:10.37,2013-05-18 21:21:00,
2013-05-18 17:26:00,72.5,65.6,29.99,North,8,0.0,1.0,79,0.00,OVC,,0.16,WeatherDisplay:10.37,2013-05-18 21:26:00,
2013-05-18 17:31:00,72.4,65.5,29.99,SSE,152,0.0,2.0,79,0.00,OVC,,0.16,WeatherDisplay:10.37,2013-05-18 21:31:00,
2013-05-18 17:36:00,72.4,65.9,29.99,SSE,150,0.0,0.0,80,0.00,OVC,,0.16,WeatherDisplay:10.37,2013-05-18 21:36:00,
2013-05-18 17:41:00,72.3,65.8,29.99,South,173,0.0,1.0,80,0.00,OVC,,0.16,WeatherDisplay:10.37,2013-05-18 21:41:00,
2013-05-18 17:46:00,72.3,66.1,29.99,East,95,0.0,1.0,81,0.00,OVC,,0.16,WeatherDisplay:10.37,2013-05-18 21:46:00,
2013-05-18 17:51:00,72.2,65.7,30.00,ESE,122,1.0,2.0,80,0.00,OVC,,0.16,WeatherDisplay:10.37,2013-05-18 21:51:00,
2013-05-18 17:56:00,72.1,66.0,30.00,SSE,151,1.0,2.0,81,0.00,OVC,,0.16,WeatherDisplay:10.37,2013-05-18 21:56:00,
2013-05-18 18:01:00,72.1,65.9,30.00,SSE,157,0.0,0.0,81,0.00,OVC,,0.16,WeatherDisplay:10.37,2013-05-18 22:01:00,
2013-05-18 18:10:00,72.0,65.8,30.00,SSW,192,0.0,2.0,81,0.00,OVC,,0.16,WeatherDisplay:10.37,2013-05-18 22:10:00,
2013-05-18 18:15:00,72.0,65.8,30.00,SSE,148,1.0,2.0,81,0.00,OVC,,0.16,WeatherDisplay:10.37,2013-05-18 22:15:00,
2013-05-18 18:20:00,71.9,65.8,30.00,SE,141,0.0,1.0,81,0.00,OVC,,0.16,WeatherDisplay:10.37,2013-05-18 22:20:00,
2013-05-18 18:25:00,72.0,65.8,29.99,SE,127,0.0,1.0,81,0.00,OVC,,0.16,WeatherDisplay:10.37,2013-05-18 22:25:00,
2013-05-18 18:30:00,72.0,66.2,29.99,SSE,156,0.0,3.0,82,0.00,OVC,,0.16,WeatherDisplay:10.37,2013-05-18 22:30:00,
2013-05-18 18:35:00,72.1,65.9,29.99,South,170,0.0,1.0,81,0.00,OVC,,0.16,WeatherDisplay:10.37,2013-05-18 22:35:00,
2013-05-18 18:40:00,72.1,65.9,30.00,SSW,199,0.0,2.0,81,0.00,OVC,,0.16,WeatherDisplay:10.37,2013-05-18 22:40:00,
2013-05-18 18:45:00,72.1,66.0,29.99,SSW,208,0.0,5.0,81,0.00,OVC,,0.16,WeatherDisplay:10.37,2013-05-18 22:45:00,
2013-05-18 18:50:00,72.1,66.0,30.00,SSW,201,1.0,2.0,81,0.00,OVC,,0.16,WeatherDisplay:10.37,2013-05-18 22:50:00,
2013-05-18 18:55:00,72.1,65.9,30.00,SW,220,0.0,0.0,81,0.00,OVC,,0.16,WeatherDisplay:10.37,2013-05-18 22:55:00,
2013-05-18 19:00:00,72.1,66.3,30.00,WSW,254,0.0,1.0,82,0.00,OVC,,0.16,WeatherDisplay:10.37,2013-05-18 23:00:00,
2013-05-18 19:05:00,72.0,66.2,30.00,NW,315,0.0,1.0,82,0.00,OVC,,0.16,WeatherDisplay:10.37,2013-05-18 23:05:00,
2013-05-18 19:10:00,71.9,66.1,30.00,NW,304,0.0,0.0,82,0.00,OVC,,0.16,WeatherDisplay:10.37,2013-05-18 23:10:00,
2013-05-18 19:15:00,71.8,66.0,30.00,NW,304,0.0,0.0,82,0.00,OVC,,0.16,WeatherDisplay:10.37,2013-05-18 23:15:00,
2013-05-18 19:20:00,71.7,65.9,30.00,NW,304,0.0,0.0,82,0.00,OVC,,0.16,WeatherDisplay:10.37,2013-05-18 23:20:00,
2013-05-18 19:25:00,71.6,66.1,30.00,NW,305,0.0,0.0,83,0.00,OVC,,0.16,WeatherDisplay:10.37,2013-05-18 23:25:00,
2013-05-18 19:30:00,71.5,66.1,30.00,NE,44,0.0,0.0,83,0.00,OVC,,0.16,WeatherDisplay:10.37,2013-05-18 23:30:00,
2013-05-18 19:35:00,71.3,66.2,30.00,North,5,0.0,0.0,84,0.00,OVC,,0.16,WeatherDisplay:10.37,2013-05-18 23:35:00,
2013-05-18 19:40:00,71.3,66.2,30.00,NE,44,0.0,0.0,84,0.00,OVC,,0.16,WeatherDisplay:10.37,2013-05-18 23:40:00,
2013-05-18 19:45:00,71.2,66.1,30.00,ENE,65,0.0,0.0,84,0.00,OVC,,0.16,WeatherDisplay:10.37,2013-05-18 23:45:00,
2013-05-18 19:50:00,71.1,66.0,30.00,ENE,72,0.0,0.0,84,0.00,OVC,,0.16,WeatherDisplay:10.37,2013-05-18 23:50:00,
2013-05-18 19:55:00,71.0,65.9,30.00,East,86,0.0,1.0,84,0.00,OVC,,0.16,WeatherDisplay:10.37,2013-05-18 23:55:00,
2013-05-18 20:00:00,70.9,65.9,30.00,East,92,0.0,0.0,84,0.00,OVC,,0.16,WeatherDisplay:10.37,2013-05-19 00:00:00,
2013-05-18 20:05:00,70.9,66.2,30.00,East,94,0.0,1.0,85,0.00,OVC,,0.16,WeatherDisplay:10.37,2013-05-19 00:05:00,
2013-05-18 20:10:00,70.8,66.1,30.00,ESE,106,0.0,2.0,85,0.00,OVC,,0.16,WeatherDisplay:10.37,2013-05-19 00:10:00,
2013-05-18 20:15:00,70.8,66.1,30.00,SE,126,0.0,0.0,85,0.00,OVC,,0.16,WeatherDisplay:10.37,2013-05-19 00:15:00,
2013-05-18 20:20:00,70.7,66.0,30.00,SE,126,0.0,0.0,85,0.00,OVC,,0.16,WeatherDisplay:10.37,2013-05-19 00:20:00,
2013-05-18 20:25:00,70.6,66.2,30.00,SE,126,0.0,0.0,86,0.00,OVC,,0.16,WeatherDisplay:10.37,2013-05-19 00:25:00,
2013-05-18 20:30:00,70.5,66.1,30.01,SE,126,0.0,0.0,86,0.00,OVC,,0.16,WeatherDisplay:10.37,2013-05-19 00:30:00,
2013-05-18 20:35:00,70.4,66.0,30.01,SE,126,0.0,0.0,86,0.00,OVC,,0.16,WeatherDisplay:10.37,2013-05-19 00:35:00,
2013-05-18 20:40:00,70.3,65.9,30.01,SE,128,0.0,1.0,86,0.00,OVC,,0.16,WeatherDisplay:10.37,2013-05-19 00:40:00,
2013-05-18 20:45:00,70.2,65.8,30.01,SE,129,0.0,0.0,86,0.00,OVC,,0.16,WeatherDisplay:10.37,2013-05-19 00:45:00,
2013-05-18 20:50:00,70.2,65.8,30.01,SE,142,0.0,0.0,86,0.00,OVC,,0.16,WeatherDisplay:10.37,2013-05-19 00:50:00,
2013-05-18 20:55:00,70.1,66.1,30.01,SSE,157,0.0,0.0,87,0.00,OVC,,0.16,WeatherDisplay:10.37,2013-05-19 00:55:00,
2013-05-18 21:00:00,70.1,66.0,30.01,SSE,157,0.0,0.0,87,0.00,OVC,,0.16,WeatherDisplay:10.37,2013-05-19 01:00:00,
2013-05-18 21:05:00,70.1,66.0,30.01,SSE,157,0.0,0.0,87,0.00,OVC,,0.16,WeatherDisplay:10.37,2013-05-19 01:05:00,
2013-05-18 21:10:00,70.0,66.0,30.01,SSE,157,0.0,0.0,87,0.00,OVC,,0.16,WeatherDisplay:10.37,2013-05-19 01:10:00,
2013-05-18 21:15:00,69.9,66.2,30.01,SSE,157,0.0,0.0,88,0.00,OVC,,0.16,WeatherDisplay:10.37,2013-05-19 01:15:00,
2013-05-18 21:20:00,69.9,66.2,30.01,SSE,157,0.0,0.0,88,0.00,OVC,,0.16,WeatherDisplay:10.37,2013-05-19 01:20:00,
2013-05-18 21:25:00,69.8,66.1,30.01,SSE,157,0.0,0.0,88,0.00,OVC,,0.16,WeatherDisplay:10.37,2013-05-19 01:25:00,
2013-05-18 21:30:00,69.7,66.0,30.01,SSE,157,0.0,0.0,88,0.00,OVC,,0.16,WeatherDisplay:10.37,2013-05-19 01:30:00,
2013-05-18 21:35:00,69.6,65.9,30.01,SSE,157,0.0,0.0,88,0.00,OVC,,0.16,WeatherDisplay:10.37,2013-05-19 01:35:00,
2013-05-18 21:40:00,69.5,66.1,30.01,SSE,157,0.0,0.0,89,0.00,OVC,,0.16,WeatherDisplay:10.37,2013-05-19 01:40:00,
2013-05-18 21:45:00,69.4,66.0,30.02,SSE,157,0.0,0.0,89,0.00,OVC,,0.16,WeatherDisplay:10.37,2013-05-19 01:45:00,
2013-05-18 21:50:00,69.3,66.0,30.02,SSE,157,0.0,0.0,89,0.00,OVC,,0.16,WeatherDisplay:10.37,2013-05-19 01:50:00,
2013-05-18 21:55:00,69.3,65.9,30.01,SSE,157,0.0,0.0,89,0.00,OVC,,0.16,WeatherDisplay:10.37,2013-05-19 01:55:00,
2013-05-18 22:00:00,69.2,66.2,30.01,SSE,157,0.0,0.0,90,0.00,OVC,,0.16,WeatherDisplay:10.37,2013-05-19 02:00:00,
2013-05-18 22:05:00,69.2,65.8,30.01,SSE,157,0.0,2.0,89,0.00,BKN,,0.16,WeatherDisplay:10.37,2013-05-19 02:05:00,
2013-05-18 22:10:00,69.2,66.1,30.01,SSE,157,0.0,0.0,90,0.00,BKN,,0.16,WeatherDisplay:10.37,2013-05-19 02:10:00,
2013-05-18 22:15:00,69.1,65.7,30.01,SSE,157,0.0,0.0,89,0.00,BKN,,0.16,WeatherDisplay:10.37,2013-05-19 02:15:00,
2013-05-18 22:20:00,69.0,65.6,30.01,SSE,157,0.0,0.0,89,0.00,BKN,,0.16,WeatherDisplay:10.37,2013-05-19 02:20:00,
2013-05-18 22:25:00,68.9,65.9,30.01,SSE,157,0.0,0.0,90,0.00,BKN,,0.16,WeatherDisplay:10.37,2013-05-19 02:25:00,
2013-05-18 22:30:00,68.9,65.8,30.01,SSE,157,0.0,0.0,90,0.00,BKN,,0.16,WeatherDisplay:10.37,2013-05-19 02:30:00,
2013-05-18 22:36:00,68.8,65.7,30.01,SSE,157,0.0,0.0,90,0.00,BKN,,0.16,WeatherDisplay:10.37,2013-05-19 02:36:00,
2013-05-18 22:41:00,68.7,65.7,30.02,SSE,157,0.0,0.0,90,0.00,BKN,,0.16,WeatherDisplay:10.37,2013-05-19 02:41:00,
2013-05-18 22:46:00,68.7,65.6,30.02,SSE,157,0.0,0.0,90,0.00,BKN,,0.16,WeatherDisplay:10.37,2013-05-19 02:46:00,
2013-05-18 22:51:00,68.6,65.5,30.02,SSE,157,0.0,0.0,90,0.00,BKN,,0.16,WeatherDisplay:10.37,2013-05-19 02:51:00,
2013-05-18 22:56:00,68.6,65.9,30.02,SSE,157,0.0,0.0,91,0.00,BKN,,0.16,WeatherDisplay:10.37,2013-05-19 02:56:00,
2013-05-18 23:01:00,68.5,65.8,30.02,SSE,157,0.0,0.0,91,0.00,BKN,,0.16,WeatherDisplay:10.37,2013-05-19 03:01:00,
2013-05-18 23:10:00,68.5,65.8,30.02,SSE,157,0.0,0.0,91,0.00,BKN,,0.16,WeatherDisplay:10.37,2013-05-19 03:10:00,
2013-05-18 23:15:00,68.5,65.8,30.02,SSE,157,0.0,0.0,91,0.00,OVC,,0.16,WeatherDisplay:10.37,2013-05-19 03:15:00,
2013-05-18 23:20:00,68.4,65.7,30.01,SSE,157,0.0,0.0,91,0.00,OVC,,0.16,WeatherDisplay:10.37,2013-05-19 03:20:00,
2013-05-18 23:25:00,68.4,65.7,30.01,SSE,157,0.0,0.0,91,0.00,OVC,,0.16,WeatherDisplay:10.37,2013-05-19 03:25:00,
2013-05-18 23:30:00,68.4,65.6,30.01,SSE,157,0.0,0.0,91,0.00,OVC,,0.16,WeatherDisplay:10.37,2013-05-19 03:30:00,
2013-05-18 23:35:00,68.4,65.6,30.01,SSE,157,0.0,0.0,91,0.00,FEW,,0.16,WeatherDisplay:10.37,2013-05-19 03:35:00,
2013-05-18 23:40:00,68.4,65.6,30.01,SSE,157,0.0,0.0,91,0.00,FEW,,0.16,WeatherDisplay:10.37,2013-05-19 03:40:00,
2013-05-18 23:45:00,68.3,65.6,30.00,SSE,157,0.0,0.0,91,0.00,BKN,,0.16,WeatherDisplay:10.37,2013-05-19 03:45:00,
2013-05-18 23:50:00,68.3,65.6,30.00,SSE,157,0.0,0.0,91,0.00,BKN,,0.16,WeatherDisplay:10.37,2013-05-19 03:50:00,
2013-05-18 23:55:00,68.3,65.9,30.00,SSE,157,0.0,0.0,92,0.00,BKN,,0.16,WeatherDisplay:10.37,2013-05-19 03:55:00,